Ridgedale, MO

6:14 PM CST on December 08, 2016 (GMT -0600)
Branson

Weather History for KBBG - February, 2013

Change the Weather History Date:

Tuesday, February 12, 2013

  Actual Average (KHRO) Record (KHRO)
Temperature  
Mean Temperature 42 °F -  
Max Temperature 53 °F 47 °F 80 °F (1962)
Min Temperature 30 °F 29 °F -24 °F (1899)
Degree Days  
Heating Degree Days 24    
Moisture  
Dew Point 27 °F    
Average Humidity 75    
Maximum Humidity 100    
Minimum Humidity 41    
Precipitation  
Precipitation 0.65 in - - ()
Sea Level Pressure  
Sea Level Pressure 30.04 in    
Wind  
Wind Speed 3 mph (NNE)    
Max Wind Speed 12 mph    
Max Gust Speed -    
Visibility 8 miles    
Events Rain , Snow    
Averages and records for this station are not official NWS values.
T = Trace of Precipitation, MM = Missing Value Source: NWS Daily Summary

Daily Weather History Graph

Daily Weather History Graph

Search for Another Location

Airport or City:

Trip Planner

Search our weather history database for the weather conditions in past years. The results will help you decide how hot, cold, wet, or windy it might be!

Date:

Astronomy

Feb. 12, 2013 Rise Set
Actual Time 7:03 AM CST 5:50 PM CST
Civil Twilight 6:37 AM CST 6:17 PM CST
Nautical Twilight 6:06 AM CST 6:47 PM CST
Astronomical Twilight 5:36 AM CST 7:17 PM CST
Moon 8:07 AM CST (2/12) 8:45 PM CST (2/12)
Length of Visible Light 11h 40m
Length of Day
10h 47m
Waxing Crescent, 7% of the Moon is Illuminated
Feb 12
Waxing Crescent
Feb 17
First Quarter
Feb 25
Full
Mar 4
Last Quarter
Mar 11
New

Hourly Weather History & Observations

Time (CST) Temp. Windchill Dew Point Humidity Pressure Visibility Wind Dir Wind Speed Gust Speed Precip Events Conditions
12:15 AM 37.4 °F - 21.2 °F 52% 30.14 in 10.0 mi Calm Calm - N/A   Mostly Cloudy
12:35 AM 35.6 °F - 21.2 °F 56% 30.14 in 10.0 mi Calm Calm - N/A   Overcast
12:55 AM 33.8 °F 29.6 °F 24.8 °F 70% 30.15 in 10.0 mi NNW 4.6 mph - N/A   Overcast
1:15 AM 32.0 °F - 24.8 °F 75% 30.15 in 10.0 mi Calm Calm - N/A   Scattered Clouds
1:35 AM 33.8 °F - 23.0 °F 65% 30.14 in 10.0 mi Calm Calm - N/A   Partly Cloudy
1:55 AM 32.0 °F - 24.8 °F 75% 30.14 in 10.0 mi Calm Calm - N/A   Mostly Cloudy
2:15 AM 32.0 °F - 24.8 °F 75% 30.14 in 10.0 mi Calm Calm - N/A   Mostly Cloudy
2:35 AM 32.0 °F - 24.8 °F 75% 30.13 in 10.0 mi Calm Calm - N/A   Scattered Clouds
2:55 AM 32.0 °F - 24.8 °F 75% 30.12 in 10.0 mi Calm Calm - N/A   Scattered Clouds
3:15 AM 30.2 °F 26.7 °F 24.8 °F 80% 30.11 in 10.0 mi East 3.5 mph - N/A   Partly Cloudy
3:35 AM 33.8 °F 30.8 °F 23.0 °F 65% 30.11 in 10.0 mi ENE 3.5 mph - N/A   Clear
3:55 AM 33.8 °F 30.8 °F 23.0 °F 65% 30.10 in 10.0 mi ENE 3.5 mph - N/A   Clear
4:15 AM 32.0 °F 26.4 °F 23.0 °F 69% 30.09 in 10.0 mi ENE 5.8 mph - N/A   Clear
4:35 AM 33.8 °F 30.8 °F 23.0 °F 65% 30.08 in 10.0 mi NE 3.5 mph - N/A   Clear
4:55 AM 32.0 °F - 23.0 °F 69% 30.08 in 10.0 mi Calm Calm - N/A   Clear
5:15 AM 32.0 °F 28.7 °F 23.0 °F 69% 30.09 in 10.0 mi SE 3.5 mph - N/A   Clear
6:48 AM 32.0 °F - 24.8 °F 75% 30.09 in 10.0 mi Calm Calm - N/A   Mostly Cloudy
7:49 AM 32.0 °F - 26.6 °F 80% 30.10 in 10.0 mi Calm Calm - N/A   Mostly Cloudy
8:50 AM 35.6 °F 31.7 °F 24.8 °F 65% 30.07 in 10.0 mi East 4.6 mph - N/A   Overcast
9:47 AM 37.4 °F 33.8 °F 24.8 °F 60% 30.08 in 10.0 mi NNE 4.6 mph - N/A   Overcast
10:46 AM 39.2 °F 33.6 °F 24.8 °F 56% 30.08 in 10.0 mi East 8.1 mph - N/A   Overcast
11:45 AM 39.2 °F 35.0 °F 26.6 °F 61% 30.08 in 10.0 mi East 5.8 mph - N/A   Overcast
12:47 PM 41.0 °F 35.8 °F 26.6 °F 57% 30.03 in 10.0 mi ESE 8.1 mph - N/A   Overcast
1:55 PM 42.8 °F 37.5 °F 26.6 °F 53% 29.99 in 10.0 mi ESE 9.2 mph - N/A   Overcast
2:55 PM 53.6 °F - 30.2 °F 41% 29.94 in 10.0 mi West 11.5 mph - N/A   Partly Cloudy
3:45 PM 41.0 °F 35.2 °F 28.4 °F 61% 29.94 in 10.0 mi ESE 9.2 mph - N/A   Overcast
4:58 PM 41.0 °F 37.1 °F 28.4 °F 61% 29.92 in 10.0 mi ENE 5.8 mph - N/A   Overcast
5:50 PM 41.0 °F 38.0 °F 28.4 °F 61% 29.90 in 10.0 mi ENE 4.6 mph - N/A   Overcast
7:55 PM 35.6 °F 30.7 °F 33.8 °F 93% 29.96 in 5.0 mi ENE 5.8 mph - N/A Rain Rain
8:15 PM 35.6 °F 30.7 °F 32.0 °F 87% 29.95 in 3.0 mi NNW 5.8 mph - 0.03 in Rain Rain
8:35 PM 35.6 °F 30.7 °F 33.8 °F 93% 29.95 in - North 5.8 mph - 0.04 in Rain Light Rain
8:55 PM 35.6 °F 31.7 °F 33.8 °F 93% 29.96 in 4.0 mi North 4.6 mph - 0.06 in Rain Light Rain
8:56 PM 35.6 °F 30.7 °F 33.8 °F 93% 29.96 in 4.0 mi North 5.8 mph - N/A Rain Light Rain
9:15 PM 35.6 °F 29.9 °F 33.8 °F 93% 29.96 in 6.0 mi NNW 6.9 mph - N/A Rain Light Rain
9:35 PM 35.6 °F 29.9 °F 33.8 °F 93% 29.96 in 4.0 mi NNW 6.9 mph - 0.01 in Rain Light Rain
9:55 PM 33.8 °F 27.0 °F 33.8 °F 100% 29.97 in 4.0 mi NNW 8.1 mph - 0.03 in Rain Light Rain
10:15 PM 32.0 °F 25.6 °F 32.0 °F 100% 29.97 in - NNW 6.9 mph - 0.04 in Snow Heavy Snow
10:35 PM 32.0 °F 25.6 °F 32.0 °F 100% 29.96 in 2.5 mi NNW 6.9 mph - 0.08 in Snow Light Snow
10:55 PM 32.0 °F 26.4 °F 32.0 °F 100% 29.96 in - NNW 5.8 mph - 0.28 in Snow Heavy Snow
11:15 PM 32.0 °F 26.4 °F 32.0 °F 100% 29.95 in - NNW 5.8 mph - 0.09 in Snow Heavy Snow
11:55 PM 32.0 °F 25.6 °F 32.0 °F 100% 29.95 in 1.2 mi North 6.9 mph - 0.28 in Snow Light Snow